TimeEDT,TemperatureF,Dew PointF,Humidity,Sea Level PressureIn,VisibilityMPH,Wind Direction,Wind SpeedMPH,Gust SpeedMPH,PrecipitationIn,Events,Conditions,WindDirDegrees,DateUTC
12:53 AM,48.0,43.0,83,30.15,10.0,Calm,Calm,-,N/A,,Clear,0,2013-09-07 04:53:00
1:53 AM,46.9,42.1,83,30.14,10.0,Calm,Calm,-,N/A,,Clear,0,2013-09-07 05:53:00
2:53 AM,46.0,42.1,86,30.12,10.0,Calm,Calm,-,N/A,,Clear,0,2013-09-07 06:53:00
3:53 AM,45.0,41.0,86,30.12,10.0,Calm,Calm,-,N/A,,Clear,0,2013-09-07 07:53:00
4:53 AM,43.0,39.0,86,30.12,10.0,Calm,Calm,-,N/A,,Clear,0,2013-09-07 08:53:00
5:53 AM,43.0,37.9,82,30.11,10.0,Calm,Calm,-,N/A,,Clear,0,2013-09-07 09:53:00
6:53 AM,42.1,37.9,85,30.11,10.0,Calm,Calm,-,N/A,,Clear,0,2013-09-07 10:53:00
7:53 AM,46.0,41.0,83,30.12,10.0,Calm,Calm,-,N/A,,Clear,0,2013-09-07 11:53:00
8:53 AM,57.0,41.0,55,30.11,10.0,WSW,4.6,-,N/A,,Clear,240,2013-09-07 12:53:00
9:53 AM,60.1,42.1,51,30.11,10.0,West,5.8,-,N/A,,Clear,280,2013-09-07 13:53:00
10:53 AM,64.0,42.1,45,30.09,10.0,SW,5.8,-,N/A,,Scattered Clouds,230,2013-09-07 14:53:00
11:53 AM,66.0,43.0,43,30.08,10.0,Variable,3.5,-,N/A,,Mostly Cloudy,0,2013-09-07 15:53:00
12:53 PM,66.0,45.0,47,30.05,10.0,Variable,4.6,-,N/A,,Overcast,0,2013-09-07 16:53:00
1:53 PM,72.0,46.0,40,30.04,10.0,SSW,10.4,-,N/A,,Scattered Clouds,210,2013-09-07 17:53:00
2:53 PM,73.0,43.0,34,30.00,10.0,SW,8.1,-,N/A,,Partly Cloudy,220,2013-09-07 18:53:00
3:53 PM,73.0,44.1,35,30.01,10.0,WSW,5.8,-,N/A,,Overcast,250,2013-09-07 19:53:00
4:53 PM,66.9,51.1,57,30.01,7.0,NW,8.1,-,0.00,Rain,Light Rain,310,2013-09-07 20:53:00
5:53 PM,62.1,55.9,80,30.00,10.0,Calm,Calm,-,0.03,,Overcast,0,2013-09-07 21:53:00
6:53 PM,63.0,55.9,78,29.99,10.0,Calm,Calm,-,0.00,Rain,Light Rain,0,2013-09-07 22:53:00
7:53 PM,62.1,55.0,78,29.99,10.0,Calm,Calm,-,0.00,,Overcast,0,2013-09-07 23:53:00
8:20 PM,62.1,55.0,78,30.00,7.0,SW,4.6,-,0.01,Rain,Light Rain,230,2013-09-08 00:20:00
8:36 PM,62.1,55.9,80,30.00,6.0,Calm,Calm,-,0.01,Rain,Light Rain,0,2013-09-08 00:36:00
8:53 PM,61.0,57.0,87,29.99,5.0,North,4.6,-,0.02,Rain,Light Rain,360,2013-09-08 00:53:00
9:18 PM,61.0,57.0,87,30.01,7.0,Calm,Calm,-,0.01,Rain,Light Rain,0,2013-09-08 01:18:00
9:53 PM,61.0,57.0,87,29.98,10.0,Calm,Calm,-,0.02,,Overcast,0,2013-09-08 01:53:00
10:53 PM,60.1,55.9,86,29.96,10.0,Calm,Calm,-,N/A,,Mostly Cloudy,0,2013-09-08 02:53:00
11:05 PM,60.1,55.9,86,29.99,10.0,Calm,Calm,-,N/A,,Scattered Clouds,0,2013-09-08 03:05:00
11:53 PM,60.1,55.9,86,29.95,9.0,SSW,3.5,-,N/A,,Scattered Clouds,200,2013-09-08 03:53:00